EW4363 Weather Reports


time (UTC)temp
C
wind
direction
speed
KPH
gust
KPH
rain 1hr
cm
rain 24hr
cm
rain mn
cm
humidity
%
barometer
mb
20260507140803 21 322 3.2 12.9 0.00 0.00 0.00 54 1011.1
20260507135804 21 323 4.8 19.3 0.00 0.00 0.00 54 1011.2
20260507134803 21 318 6.4 14.5 0.00 0.00 0.00 53 1011.3
20260507134303 21 317 4.8 14.5 0.00 0.00 0.00 54 1011.1
20260507133803 21 315 4.8 11.3 0.00 0.00 0.00 53 1011.3
20260507133303 21 318 9.7 20.9 0.00 0.00 0.00 52 1011.4
20260507132803 21 317 4.8 16.1 0.00 0.00 0.00 54 1011.4
20260507132307 21 316 4.8 14.5 0.00 0.00 0.00 55 1011.4
20260507131303 21 304 3.2 12.9 0.00 0.00 0.00 54 1011.4
20260507130803 21 305 6.4 14.5 0.00 0.00 0.00 54 1011.5
20260507130303 21 308 6.4 14.5 0.00 0.00 0.00 54 1011.5
20260507125803 21 315 4.8 12.9 0.00 0.00 0.00 54 1011.5
20260507125306 21 320 6.4 19.3 0.00 0.00 0.00 54 1011.6
20260507124803 22 304 6.4 14.5 0.00 0.00 0.00 53 1011.8
20260507124304 22 312 4.8 20.9 0.00 0.00 0.00 54 1011.7
20260507123803 22 324 4.8 14.5 0.00 0.00 0.00 53 1011.7
20260507122803 22 322 6.4 12.9 0.00 0.00 0.00 53 1011.7
20260507122306 22 309 6.4 14.5 0.00 0.00 0.00 53 1011.8
20260507121803 22 313 8.0 16.1 0.00 0.00 0.00 52 1011.8
20260507121303 22 321 6.4 16.1 0.00 0.00 0.00 50 1011.8
20260507120803 22 318 6.4 12.9 0.00 0.00 0.00 50 1011.8
20260507120303 22 311 4.8 12.9 0.00 0.00 0.00 49 1011.8
20260507115803 22 315 4.8 19.3 0.00 0.00 0.00 50 1011.8
20260507115306 22 321 6.4 12.9 0.00 0.00 0.00 49 1011.8
20260507114804 22 313 4.8 8.0 0.00 0.00 0.00 50 1011.8
20260507114303 22 311 4.8 12.9 0.00 0.00 0.00 49 1011.9
20260507113804 22 317 3.2 8.0 0.00 0.00 0.00 52 1011.9
20260507112306 21 321 4.8 14.5 0.00 0.00 0.00 53 1012.1
20260507111803 21 321 3.2 4.8 0.00 0.00 0.00 54 1012.3
20260507111304 21 310 3.2 11.3 0.00 0.00 0.00 54 1012.3
20260507110803 21 323 6.4 11.3 0.00 0.00 0.00 53 1012.4
20260507110303 21 317 4.8 11.3 0.00 0.00 0.00 54 1012.5
20260507105803 21 316 3.2 11.3 0.00 0.00 0.00 55 1012.5
20260507105306 21 310 4.8 20.9 0.00 0.00 0.00 53 1012.5
20260507104303 21 324 3.2 9.7 0.00 0.00 0.00 53 1012.6
20260507103803 21 322 3.2 9.7 0.00 0.00 0.00 54 1012.7
20260507103303 21 322 4.8 9.7 0.00 0.00 0.00 54 1012.7
20260507102804 21 333 3.2 8.0 0.00 0.00 0.00 54 1012.8
20260507102306 21 322 4.8 8.0 0.00 0.00 0.00 56 1012.9
20260507101304 20 321 3.2 11.3 0.00 0.00 0.00 59 1012.9
20260507100803 19 323 3.2 4.8 0.00 0.00 0.00 62 1013.0
20260507100304 19 319 3.2 11.3 0.00 0.00 0.00 63 1013.1
20260507095305 20 318 3.2 4.8 0.00 0.00 0.00 62 1013.0
20260507094803 20 288 1.6 4.8 0.00 0.00 0.00 61 1013.0
20260507094303 20 325 1.6 4.8 0.00 0.00 0.00 61 1013.1
20260507093804 19 319 0.0 4.8 0.00 0.00 0.00 61 1013.1
20260507093303 19 317 0.0 3.2 0.00 0.00 0.00 62 1013.2
20260507092804 20 332 1.6 4.8 0.00 0.00 0.00 61 1013.2
20260507092306 20 326 3.2 4.8 0.00 0.00 0.00 59 1013.2
20260507091804 20 330 0.0 1.6 0.00 0.00 0.00 60 1013.2
20260507090803 19 309 1.6 8.0 0.00 0.00 0.00 63 1013.1
20260507090303 18 313 1.6 4.8 0.00 0.00 0.00 64 1013.0
20260507085803 18 274 0.0 3.2 0.00 0.00 0.00 65 1013.0
20260507085306 18 320 1.6 3.2 0.00 0.00 0.00 65 1013.0
20260507084803 18 312 0.0 3.2 0.00 0.00 0.00 66 1013.0
20260507084304 18 310 0.0 3.2 0.00 0.00 0.00 67 1013.1
20260507083803 18 327 0.0 4.8 0.00 0.00 0.00 66 1013.2
20260507082804 18 324 1.6 4.8 0.00 0.00 0.00 65 1013.1
20260507082306 18 260 0.0 3.2 0.00 0.00 0.00 65 1013.1
20260507081803 18 326 0.0 3.2 0.00 0.00 0.00 65 1013.2
20260507081303 18 324 0.0 1.6 0.00 0.00 0.00 66 1013.2
20260507080804 17 324 0.0 1.6 0.00 0.00 0.00 65 1013.2
20260507080303 17 324 0.0 1.6 0.00 0.00 0.00 65 1013.3
20260507075804 17 325 1.6 3.2 0.00 0.00 0.00 65 1013.4
20260507075306 17 276 0.0 1.6 0.00 0.00 0.00 66 1013.5
20260507074804 16 276 0.0 0.0 0.00 0.00 0.00 67 1013.6
20260507074303 16 276 0.0 1.6 0.00 0.00 0.00 70 1013.6
20260507073804 15 276 0.0 1.6 0.00 0.00 0.00 71 1013.7
20260507073304 15 276 0.0 0.0 0.00 0.00 0.00 73 1013.6
20260507072804 14 276 0.0 0.0 0.00 0.00 0.00 74 1013.6
20260507072306 14 276 0.0 0.0 0.00 0.00 0.00 75 1013.6
20260507071803 13 276 0.0 1.6 0.00 0.00 0.00 76 1013.6
20260507071303 13 276 0.0 3.2 0.00 0.00 0.00 77 1013.6
20260507070804 13 272 0.0 0.0 0.00 0.00 0.00 77 1013.7
20260507070304 13 272 0.0 0.0 0.00 0.00 0.00 79 1013.6
20260507065803 13 274 0.0 0.0 0.00 0.00 0.00 79 1013.5
20260507065306 12 331 0.0 0.0 0.00 0.00 0.00 79 1013.5
20260507064804 12 324 0.0 0.0 0.00 0.00 0.00 79 1013.5
20260507064303 12 324 0.0 0.0 0.00 0.00 0.00 79 1013.4
20260507063804 12 324 0.0 0.0 0.00 0.00 0.00 80 1013.3
20260507062804 12 324 0.0 3.2 0.00 0.00 0.00 83 1013.3
20260507062306 12 323 1.6 3.2 0.00 0.00 0.00 83 1013.2
20260507061803 11 328 0.0 3.2 0.00 0.00 0.00 83 1013.1
20260507060803 11 324 0.0 1.6 0.00 0.00 0.00 86 1013.1
20260507060303 11 324 1.6 3.2 0.00 0.00 0.00 87 1013.0
20260507055803 10 283 0.0 1.6 0.00 0.00 0.00 88 1013.0
20260507054804 10 283 0.0 0.0 0.00 0.00 0.00 89 1013.0
20260507054304 10 283 0.0 0.0 0.00 0.00 0.00 88 1012.9
20260507053803 10 283 0.0 0.0 0.00 0.00 0.00 88 1012.9
20260507053304 10 283 0.0 0.0 0.00 0.00 0.00 88 1012.8
20260507052803 10 283 0.0 0.0 0.00 0.00 0.00 88 1012.8
20260507052306 10 283 0.0 0.0 0.00 0.00 0.00 88 1012.8
20260507051304 10 283 0.0 0.0 0.00 0.00 0.00 89 1012.6
20260507050304 10 283 0.0 0.0 0.00 0.00 0.00 89 1012.6
20260507045803 10 283 0.0 0.0 0.00 0.00 0.00 90 1012.6
20260507045306 10 283 0.0 0.0 0.00 0.00 0.00 89 1012.6
20260507044804 10 283 0.0 0.0 0.00 0.00 0.00 88 1012.6
20260507044304 10 257 0.0 0.0 0.00 0.00 0.00 88 1012.6
20260507043803 10 257 0.0 1.6 0.00 0.00 0.00 87 1012.6
20260507043304 10 257 0.0 1.6 0.00 0.00 0.00 88 1012.6
20260507042804 10 261 0.0 1.6 0.00 0.00 0.00 88 1012.5
20260507042306 10 293 0.0 1.6 0.00 0.00 0.00 89 1012.5
20260507041804 10 293 0.0 1.6 0.00 0.00 0.00 89 1012.5
20260507041304 10 293 0.0 0.0 0.00 0.00 0.00 88 1012.5
20260507040303 10 293 0.0 1.6 0.00 0.00 0.00 87 1012.6
20260507035804 10 293 0.0 1.6 0.00 0.00 0.00 87 1012.6
20260507035306 10 269 0.0 4.8 0.00 0.00 0.00 87 1012.5
20260507034803 10 260 1.6 4.8 0.00 0.00 0.00 88 1012.5
20260507034304 10 268 0.0 4.8 0.00 0.00 0.00 88 1012.5
20260507033805 10 279 0.0 0.0 0.00 0.00 0.00 89 1012.6
20260507033304 10 316 0.0 1.6 0.00 0.00 0.00 90 1012.6
20260507032804 10 326 0.0 1.6 0.00 0.00 0.00 90 1012.6
20260507031804 10 326 0.0 0.0 0.00 0.00 0.00 90 1012.7
20260507031304 10 326 0.0 0.0 0.00 0.00 0.00 90 1012.7
20260507030804 10 326 0.0 0.0 0.00 0.00 0.00 89 1012.7
20260507025804 10 325 0.0 3.2 0.00 0.00 0.00 88 1012.7
20260507025306 10 325 0.0 1.6 0.00 0.00 0.00 89 1012.6
20260507024303 10 325 0.0 0.0 0.00 0.03 0.00 90 1012.5
20260507023804 10 325 0.0 0.0 0.00 0.03 0.00 90 1012.5
20260507023303 10 325 0.0 0.0 0.00 0.03 0.00 89 1012.5
20260507022804 10 325 0.0 0.0 0.00 0.03 0.00 88 1012.4
20260507022306 10 325 0.0 1.6 0.00 0.03 0.00 88 1012.4
20260507021804 10 325 0.0 1.6 0.00 0.03 0.00 88 1012.5
20260507021304 10 324 1.6 3.2 0.00 0.03 0.00 88 1012.4
20260507020804 11 281 0.0 0.0 0.00 0.03 0.00 88 1012.4
20260507020304 11 281 0.0 1.6 0.00 0.03 0.00 88 1012.4
20260507015804 11 281 0.0 1.6 0.00 0.03 0.00 88 1012.5
20260507014804 10 281 0.0 0.0 0.00 0.03 0.00 88 1012.6
20260507014303 10 281 0.0 1.6 0.00 0.03 0.00 88 1012.7
20260507013804 10 281 0.0 1.6 0.00 0.03 0.00 88 1012.7
20260507013304 11 281 0.0 0.0 0.00 0.03 0.00 87 1012.7
20260507012804 11 281 0.0 1.6 0.00 0.03 0.00 86 1012.7
20260507012306 11 281 0.0 0.0 0.00 0.03 0.00 86 1012.7
20260507011804 11 281 0.0 1.6 0.00 0.03 0.00 87 1012.5
20260507011305 11 0 0.0 0.0 0.00 0.03 0.00 86 1012.5
20260507010804 11 281 0.0 0.0 0.00 0.03 0.00 86 1012.6
20260507010303 11 281 0.0 0.0 0.00 0.03 0.00 86 1012.7
20260507005804 11 281 0.0 0.0 0.00 0.03 0.00 87 1012.7
20260507005306 11 281 0.0 0.0 0.00 0.03 0.00 86 1012.7
20260507004804 11 281 0.0 0.0 0.00 0.03 0.00 86 1012.8
20260507004303 11 281 0.0 0.0 0.00 0.03 0.00 85 1012.9
20260507003804 11 281 0.0 0.0 0.00 0.03 0.00 85 1012.9
20260507003303 11 281 0.0 1.6 0.00 0.03 0.00 85 1012.9
20260507002306 11 281 0.0 1.6 0.00 0.03 0.00 86 1012.9
20260507001804 11 281 0.0 0.0 0.00 0.03 0.00 86 1012.9
20260507000306 11 327 0.0 0.0 0.00 0.03 0.00 85 1013.0
20260506235804 11 327 0.0 0.0 0.00 0.03 0.00 85 1013.0
20260506235306 11 327 0.0 0.0 0.00 0.03 0.00 85 1012.9
20260506234804 11 327 0.0 0.0 0.00 0.03 0.00 85 1012.9
20260506234304 11 327 1.6 3.2 0.00 0.03 0.00 84 1013.0
20260506233804 12 321 0.0 3.2 0.00 0.03 0.00 84 1012.9
20260506233304 12 324 0.0 0.0 0.00 0.03 0.00 84 1012.9
20260506232804 12 324 0.0 0.0 0.00 0.03 0.00 84 1012.9
20260506231804 12 324 0.0 0.0 0.00 0.03 0.00 83 1013.0
20260506231304 12 324 0.0 0.0 0.00 0.03 0.00 83 1012.9
20260506230804 12 324 0.0 0.0 0.00 0.03 0.00 83 1012.9
20260506225805 12 324 0.0 0.0 0.00 0.03 0.00 82 1012.9
20260506225306 12 324 0.0 0.0 0.00 0.03 0.00 82 1012.9
20260506224804 12 324 0.0 0.0 0.00 0.03 0.00 81 1012.9
20260506224304 12 324 0.0 0.0 0.00 0.03 0.00 81 1012.8
20260506223804 13 324 0.0 0.0 0.00 0.03 0.00 80 1012.8
20260506223304 13 324 0.0 0.0 0.00 0.03 0.00 79 1012.8
20260506222804 13 324 0.0 0.0 0.00 0.03 0.00 79 1012.8
20260506222306 13 324 0.0 0.0 0.00 0.03 0.00 79 1012.8
20260506221804 13 324 0.0 0.0 0.00 0.03 0.00 79 1012.8
20260506221304 13 324 0.0 0.0 0.00 0.03 0.00 78 1012.7
20260506220811 13 324 0.0 0.0 0.00 0.03 0.00 78 1012.7
20260506215804 13 324 0.0 0.0 0.00 0.03 0.03 76 1012.7
20260506215306 13 324 0.0 0.0 0.00 0.03 0.03 76 1012.7
20260506214804 13 324 0.0 0.0 0.00 0.03 0.03 75 1012.7
20260506214304 14 324 0.0 0.0 0.00 0.03 0.03 75 1012.7
20260506213804 14 324 0.0 0.0 0.00 0.03 0.03 75 1012.7
20260506213304 14 324 0.0 0.0 0.00 0.03 0.03 74 1012.6
20260506212804 14 324 0.0 0.0 0.00 0.03 0.03 74 1012.6
20260506212306 14 324 0.0 0.0 0.00 0.03 0.03 73 1012.7
20260506211305 15 324 0.0 0.0 0.00 0.03 0.03 73 1012.6
20260506203804 15 323 0.0 0.0 0.00 0.03 0.03 69 1012.2
20260506203304 15 323 0.0 0.0 0.00 0.03 0.03 68 1012.2
20260506201804 16 282 0.0 1.6 0.00 0.03 0.03 67 1011.9
20260506201304 16 282 1.6 4.8 0.00 0.03 0.03 67 1011.9
20260506200804 16 288 0.0 1.6 0.00 0.03 0.03 67 1011.9
20260506200304 16 288 0.0 1.6 0.00 0.03 0.03 67 1011.8
20260506195804 16 289 0.0 1.6 0.00 0.03 0.03 66 1011.7
20260506194804 16 289 0.0 1.6 0.00 0.03 0.03 65 1011.5
20260506194304 16 290 0.0 0.0 0.00 0.03 0.03 64 1011.5
20260506193304 16 288 0.0 1.6 0.00 0.03 0.03 62 1011.2
20260506192804 16 288 0.0 1.6 0.00 0.03 0.03 61 1011.2
20260506192306 16 312 0.0 1.6 0.00 0.03 0.03 60 1011.1
20260506191804 16 326 0.0 4.8 0.00 0.03 0.03 60 1011.0
20260506191304 17 318 1.6 4.8 0.00 0.03 0.03 59 1010.9
20260506190304 17 326 0.0 4.8 0.00 0.03 0.03 59 1010.8
20260506185306 17 325 1.6 4.8 0.00 0.03 0.03 58 1010.6
20260506184804 17 319 1.6 4.8 0.00 0.03 0.03 57 1010.5
20260506184304 17 323 1.6 8.0 0.00 0.03 0.03 57 1010.5
20260506183804 17 326 1.6 4.8 0.00 0.03 0.03 56 1010.3
20260506182306 18 321 4.8 8.0 0.00 0.03 0.03 55 1010.1
20260506181804 18 312 1.6 4.8 0.00 0.03 0.03 55 1010.1
20260506180804 18 327 3.2 8.0 0.00 0.03 0.03 53 1010.0
20260506180304 19 315 4.8 9.7 0.00 0.03 0.03 52 1009.9
20260506175804 20 326 3.2 8.0 0.00 0.03 0.03 51 1009.8
20260506175306 20 322 4.8 8.0 0.00 0.03 0.03 50 1009.8
20260506174305 20 323 3.2 8.0 0.00 0.03 0.03 50 1009.7
20260506173804 20 325 3.2 8.0 0.00 0.03 0.03 50 1009.6
20260506173304 21 323 3.2 9.7 0.00 0.03 0.03 49 1009.6
20260506172804 21 326 3.2 4.8 0.00 0.03 0.03 48 1009.5
20260506171805 20 323 3.2 9.7 0.00 0.03 0.03 49 1009.3
20260506170804 21 298 3.2 8.0 0.00 0.03 0.03 49 1009.4
20260506170305 20 286 1.6 4.8 0.00 0.03 0.03 50 1009.4
20260506165305 20 314 1.6 11.3 0.00 0.05 0.03 51 1009.2
20260506164804 20 321 4.8 11.3 0.00 0.05 0.03 52 1009.2
20260506164305 20 319 4.8 11.3 0.00 0.08 0.03 52 1009.2
20260506163305 20 317 4.8 14.5 0.00 0.10 0.03 51 1009.2
20260506162804 21 318 6.4 12.9 0.00 0.13 0.03 49 1009.1
20260506162307 21 324 3.2 11.3 0.00 0.13 0.03 49 1009.1
20260506161804 21 315 4.8 11.3 0.00 0.15 0.03 49 1009.0
20260506161304 21 321 8.0 14.5 0.00 0.15 0.03 48 1009.0
20260506160804 21 318 4.8 9.7 0.00 0.15 0.03 47 1008.9
20260506160305 22 314 3.2 8.0 0.00 0.18 0.03 45 1008.9
20260506155306 22 321 4.8 11.3 0.00 0.23 0.03 44 1008.8
20260506154304 23 319 3.2 8.0 0.00 0.33 0.03 43 1008.8
20260506153804 23 317 3.2 11.3 0.00 0.33 0.03 42 1008.8
20260506153305 24 312 4.8 11.3 0.00 0.33 0.03 41 1008.8
20260506152804 24 338 1.6 8.0 0.00 0.33 0.03 39 1008.8
20260506152306 24 297 1.6 4.8 0.00 0.33 0.03 40 1008.9
20260506151805 24 323 4.8 12.9 0.00 0.33 0.03 39 1008.9
20260506151305 24 292 3.2 9.7 0.00 0.33 0.03 33 1008.9
20260506145805 23 257 1.6 8.0 0.00 0.33 0.03 33 1009.0
20260506145305 23 303 3.2 9.7 0.00 0.33 0.03 33 1009.0
20260506144804 23 266 4.8 16.1 0.00 0.33 0.03 34 1008.9
20260506144305 23 276 0.0 9.7 0.00 0.33 0.03 34 1009.0
20260506143805 23 284 1.6 9.7 0.00 0.33 0.03 33 1009.1
20260506143305 23 300 4.8 11.3 0.00 0.33 0.03 34 1009.2
20260506142804 23 261 4.8 11.3 0.00 0.33 0.03 35 1009.3
20260506142306 23 330 3.2 9.7 0.00 0.33 0.03 34 1009.3